Terminal Aerodrome Forecast
Issued by NWS Bismarck, ND

Home | Current Version | Previous Version | Graphics & Text | Print | Product List | Glossary On
Versions: 1 2 3 4 5 6 7 8 9 10 11 12 13 14 15 16 17 18 19 20 21 22 23 24
000
FTUS43 KBIS 111921 AAA
TAFBIS
TAF AMD
KBIS 111921Z 1119/1218 34016G24KT P6SM SCT025 BKN035
      TEMPO 1119/1123 BKN025
     FM112300 32008KT P6SM SCT020 BKN035
     FM120600 28005KT P6SM SCT025 BKN045
     FM120900 27005KT P6SM FEW060 SCT150
     FM121300 27004KT P6SM SCT080 BKN110=

USA.gov is the U.S. government's official web portal to all federal, state and local government web resources and services.